Вернуться в каталог

STARLINK-36217

АктивенСвязьVLEO
NORAD 67120·PAYLOAD·🇺🇸 United States

Запущен Dec 15, 2025 с Cape Canaveral Space Force Station

Loading…

Ближайшие Пролёты (ближайшие 24 часа)

TLE

СвежийSource: CelesTrak SupGP

Эпоха: Sep 14, 2026, 16:07 UTC

1 67120C 25299U   26257.67201389  .00041635  00000+0  15083-2 0  2575
2 67120  43.0009 182.0301 0001402 264.3128 144.7249 15.27551254    11

Отслеживайте STARLINK-36217 в реальном времени с AllMySat

Download on the App Store